BSB police report for January 17, 2020

Print
"01/16/2020","00:34","220CR0001278","ALL OTHER","ALL OTHER","400 S CLARK ST","",""
"01/16/2020","01:32","220CR0001279","FRAUD","FORGERY/COUNTERFEIT","1915 DEWEY","",""
"01/16/2020","02:50","220CR0001280","MEDICAL - EMERGENCY","MEDICAL - EMERGENCY","3033 BUSCH #16","",""
"01/16/2020","03:27","220CR0001281","WELFARE CHECK","WELFARE CHECK","OREGON AVE AND SECOND ST","",""
"01/16/2020","06:40","220CR0001282","MEDICAL - EMERGENCY","MEDICAL - EMERGENCY","3039 ATHERTON LN","",""
"01/16/2020","07:42","220CR0001283","CIVIL PAPER SERVICE","CIVIL PAPER SERVICE","725 9TH STREET","",""
"01/16/2020","07:48","220CR0001284","ALARM - BURGLARY","ALARM - BURGLARY","************","",""
"01/16/2020","07:53","220CR0001285","SUSPICIOUS ACTIVITY","SUSPICIOUS ACTIVITY","1370 HARRISON AVE","",""
"01/16/2020","08:05","220CR0001286","CIVIL PAPER SERVICE","CIVIL PAPER SERVICE","1913 S MONTANA","",""
"01/16/2020","08:06","220CR0001287","CIVIL PAPER SERVICE","CIVIL PAPER SERVICE","3113 RICHARDSON","",""
"01/16/2020","08:09","220CR0001288","T/S","T/S","ROWE RD AND CLINTON","",""
"01/16/2020","08:18","220CR0001289","CIVIL PAPER SERVICE","CIVIL PAPER SERVICE","3445 KENNEDY ST","",""
"01/16/2020","08:21","220CR0001290","CIVIL PAPER SERVICE","CIVIL PAPER SERVICE","11 REDWOOD DR","",""
"01/16/2020","08:42","220CR0001291","LED BUSINESS","LED BUSINESS","155 W GRANITE","",""
"01/16/2020","08:43","220CR0001292","CIVIL PAPER SERVICE","CIVIL PAPER SERVICE","108 E CENTER","",""
"01/16/2020","08:48","220CR0001293","LED BUSINESS","LED BUSINESS","435 S CRYSTAL ST","",""
"01/16/2020","08:49","220CR0001294","VANDALISM/CRIMINAL MISCHIEF","CRIMINAL MISCHIEF","1 RAMSAY PLACE","",""
"01/16/2020","09:00","220CR0001295","JUVENILE MISC","JUVENILE MISC","************","",""
"01/16/2020","09:09","220CR0001296","CIVIL PAPER SERVICE","CIVIL PAPER SERVICE","912 CALIFORNIA","",""
"01/16/2020","09:23","220CR0001297","DETENTION BUSINESS","DETENTION BUSINESS","************","",""
"01/16/2020","09:29","220CR0001298","SUSPICIOUS ACTIVITY","SUSPICIOUS ACTIVITY","10 BLK E GRANITE","",""
"01/16/2020","09:30","220CR0001299","FRAUD","THEFT, ALL OTHERS","77020 HWY 43","",""
"01/16/2020","09:39","220CR0001300","T/S","T/S @ 840 S MONTANA ST","840 S MONTANA ST","",""
"01/16/2020","09:41","220CR0001301","JUVENILE MISC","JUVENILE MISC","************","",""
"01/16/2020","10:54","220CR0001302","T/S","T/S","3000 BLK CONTINENTAL","",""
"01/16/2020","10:55","220CR0001303","T/S","T/S","222 E PARK","",""
"01/16/2020","11:15","220CR0001304","WANTED PERSON","WANTED PERSON","************","",""
"01/16/2020","11:24","220CR0001305","SUSPICIOUS ACTIVITY","SUSPICIOUS ACTIVITY","700 ROW SILVER BOW HOMES","",""
"01/16/2020","11:26","220CR0001306","THEFT","THEFT","1005 S MONTANA ST","",""
"01/16/2020","11:39","220CR0001307","DETENTION BUSINESS","DETENTION BUSINESS","************","",""
"01/16/2020","11:42","220CR0001308","SUSPICIOUS ACTIVITY","SUSPICIOUS ACTIVITY","2305 CONTINENTAL DR TOWN PUMP","",""
"01/16/2020","12:14","220CR0001309","THEFT","THEFT, SHOPLIFT","310 W FRONT ST","",""
"01/16/2020","12:40","220CR0001311","DETENTION BUSINESS","DETENTION BUSINESS","************","",""
"01/16/2020","13:09","220CR0001313","THEFT","THEFT","3901 HARRISON AVE","",""
"01/16/2020","13:17","220CR0001314","DISTURBANCE","DISTURBANCE","1960 WALNUT","",""
"01/16/2020","13:20","220CR0001315","WELFARE CHECK","WELFARE CHECK","2205 FAIRWAY","",""
"01/16/2020","13:27","220CR0001316","CIVIL PAPER SERVICE","CIVIL PAPER SERVICE","203 SILVER BOW HOMES","",""
"01/16/2020","13:55","220CR0001317","CIVIL PAPER SERVICE","CIVIL PAPER SERVICE","2925 KOSSUTH","",""
"01/16/2020","14:04","220CR0001318","ALARM - MEDICAL","ALARM - MEDICAL","************","",""
"01/16/2020","14:28","220CR0001320","MEDICAL - EMERGENCY","MEDICAL - EMERGENCY","1639 HARRISON AVE","",""
"01/16/2020","14:35","220CR0001321","DETENTION BUSINESS","DETENTION BUSINESS","************","",""
"01/16/2020","15:33","220CR0001322","T/S","T/S @ MONTANA AND ALUMINUM","MONTANA AND ALUMINUM","",""
"01/16/2020","16:02","220CR0001323","T/S","T/S @ GOLD AND MONTANA","GOLD AND MONTANA","",""
"01/16/2020","16:17","220CR0001324","T/S","CRIMINAL CONTEMPT","800 BLK S MONTANA","ARREST(s) MADE",""
"01/16/2020","16:25","220CR0001325","DISTURBANCE","DISTURBANCE","THRIFTWAY AMHERST // HARRISON","",""
"01/16/2020","16:28","220CR0001326","ATL","ATL","SANTA CLAUS RD","",""
"01/16/2020","16:42","220CR0001327","ACCIDENT","ACCIDENT","1355 TEXAS","",""
"01/16/2020","17:07","220CR0001328","ALARM - BURGLARY","ALARM - BURGLARY","************","",""
"01/16/2020","17:11","220CR0001329","SUSPICIOUS ACTIVITY","SUSPICIOUS ACTIVITY","2929 HARRISON AVE #226","",""
"01/16/2020","17:53","220CR0001330","DISTURBANCE","DISTURBANCE","1511 GAYLORD","",""
"01/16/2020","18:24","220CR0001331","ATL","ATL","","",""
"01/16/2020","18:45","220CR0001333","FIRE - OTHER","FIRE - OTHER","150 MOOSE CREEK RD","",""
"01/16/2020","18:46","220CR0001332","SUSPICIOUS ACTIVITY","SUSPICIOUS ACTIVITY","2500  BLK WALNUT","",""
"01/16/2020","18:51","220CR0001334","ASSAULT","ASSAULT","************","",""
"01/16/2020","18:55","220CR0001335","CIVIL PAPER SERVICE","CIVIL PAPER SERVICE","224 AMERICAN DR","",""
"01/16/2020","19:00","220CR0001336","T/S","T/S","JOSETTE AND ROWE","",""
"01/16/2020","19:02","220CR0001337","SUICIDE ATTEMPT/THREAT","SUICIDE ATTEMPT/THREAT","************","",""
"01/16/2020","19:17","220CR0001338","VANDALISM/CRIMINAL MISCHIEF","VANDALISM/CRIMINAL MISCHIEF","642 TRAVONIA","",""
"01/16/2020","19:22","220CR0001339","WELFARE CHECK","WELFARE CHECK","225 N ALASKA","",""
"01/16/2020","19:39","220CR0001341","SUSPICIOUS ACTIVITY","SUSPICIOUS ACTIVITY","MAIN X PACIFIC","",""
"01/16/2020","20:00","220CR0001342","MEDICAL - EMERGENCY","MEDICAL - EMERGENCY","205 W GRANITE #207","",""
"01/16/2020","20:44","220CR0001343","ALL OTHER","ALL OTHER","1125 S MAIN #101","",""
"01/16/2020","21:02","220CR0001344","THEFT","THEFT","2701 YALE","",""
"01/16/2020","21:06","220CR0001345","PARKING COMPLAINT","PARKING COMPLAINT","1040 S MONTANA ST","",""
"01/16/2020","22:02","220CR0001347","HARASSMENT","HARASSMENT","703 N MONTANA GOODWILL BAR","",""
"01/16/2020","22:12","220CR0001348","MEDICAL - EMERGENCY","MEDICAL - EMERGENCY","1101 1/2 S ARIZONA","",""
"01/16/2020","22:23","220CR0001349","CITIZEN AID","CITIZEN AID","GOODWILL BAR","",""
"01/16/2020","22:58","220CR0001350","MEDICAL - EMERGENCY","MEDICAL - EMERGENCY","1515 OREGON #603","",""
"01/16/2020","23:21","220CR0001351","VANDALISM/CRIMINAL MISCHIEF","CRIMINAL MISCHIEF","5101 S WARREN #10","",""
"01/16/2020","23:38","220CR0001352","SUSPICIOUS ACTIVITY","SUSPICIOUS ACTIVITY","2109 YALE","",""
"01/17/2020","00:14","220CR0001353","BUSINESS CHECK","BUSINESS CHECK","3700 HARRISON","",""
"01/17/2020","00:24","220CR0001354","MEDICAL - EMERGENCY","MEDICAL - EMERGENCY","155 W QUARTZ","",""
"01/17/2020","01:21","220CR0001355","CIVIL PAPER SERVICE","CIVIL PAPER SERVICE","5101 S WARREN #8","",""
"01/17/2020","01:29","220CR0001356","DISTURBANCE-NOISE","DISTURBANCE-NOISE","633 1/2 S MONTANA","",""
"01/17/2020","01:31","220CR0001357","SUSPICIOUS ACTIVITY","SUSPICIOUS ACTIVITY","MAIN AND PARK","",""
"01/17/2020","02:28","220CR0001358","BUSINESS CHECK","BUSINESS CHECK","531 S MONTANA","",""
"01/17/2020","02:34","220CR0001359","BUSINESS CHECK","BUSINESS CHECK","1370 HARRISON","",""
"01/17/2020","02:45","220CR0001360","SUSPICIOUS ACTIVITY","SUSPICIOUS ACTIVITY","904 UTAH ST / WHALEN TIRE","",""
"01/17/2020","03:07","220CR0001361","FIRE- GAS ODOR","FIRE- GAS ODOR","223 S JACKSON","",""
"01/17/2020","03:48","220CR0001362","WELFARE CHECK","WELFARE CHECK","59 BENNETT","",""
"01/17/2020","07:24","220CR0001363","TRAFFIC HAZARD","TRAFFIC HAZARD","59 BENNET","",""
"01/17/2020","07:32","220CR0001364","CIVIL PAPER SERVICE","CIVIL PAPER SERVICE","910 EVANS APT E5","",""
"01/17/2020","07:36","220CR0001365","CIVIL PAPER SERVICE","CIVIL PAPER SERVICE","910 EVANS ST APT B5","",""
"01/17/2020","07:47","220CR0001366","CIVIL PAPER SERVICE","CIVIL PAPER SERVICE","517 W DALY ST","",""